Regional Weather Roundup
Issued by NWS

Home | Current Version | Previous Version | Graphics & Text | Print | Product List | Glossary On
Versions: 1 2 3 4 5 6 7 8 9 10 11 12 13 14 15 16 17 18 19 20 21 22 23 24 25 26 27 28 29 30 31 32 33 34 35 36 37 38 39 40 41 42 43 44 45 46 47 48 49 50
000
ASUS43 KLSX 192107
RWRMO

WEATHER SUMMARY FOR MISSOURI
NATIONAL WEATHER SERVICE SPRINGFIELD MO
300 PM CST FRI DEC 19 2014

NOTE: "FAIR" INDICATES FEW OR NO CLOUDS BELOW 12,000 FEET WITH NO
       SIGNIFICANT WEATHER AND/OR OBSTRUCTIONS TO VISIBILITY.
       CURRENT SKY AND/OR WEATHER CONDITIONS ARE NOT AVAILABLE FOR
       CHILLICOTHE AND FARMINGTON.

MOZ001>031-035>038-043-044-053-054-192200-
...NORTHERN AND WESTERN MISSOURI...

CITY           SKY/WX    TMP DP  RH WIND       PRES   REMARKS
KANSAS CTY INT CLOUDY    32  29  88 SW3       30.21F FOG
KANSAS C DTWN  CLOUDY    34  30  85 S5        30.22F WCI  30
LEE`S SUMMIT   CLOUDY    34  30  85 CALM      30.21F
ST JOSEPH      CLOUDY    32  29  88 SW6       30.22F WCI  26
CHILLICOTHE      N/A     34  30  85 CALM      30.24F
KIRKSVILLE     CLOUDY    32  30  92 SE6       30.24F FOG     WCI  26

$$
MOZ066>068-077>081-088>096-101>105-192200-
...SOUTHWEST MISSOURI...

CITY           SKY/WX    TMP DP  RH WIND       PRES   REMARKS
SPRINGFIELD    CLOUDY    40  35  83 E3        30.17F
JOPLIN         FOG       39  38  96 N3        30.19S VSB 3/4

$$
MOZ032>034-039>042-045>050-055>058-069>072-192200-
...CENTRAL MISSOURI...

CITY           SKY/WX    TMP DP  RH WIND       PRES   REMARKS
COLUMBIA       CLOUDY    36  32  85 SE5       30.22F
JEFFERSON CITY CLOUDY    38  31  76 E3        30.24F
ROLLA          CLOUDY    35  31  85 SE3       30.20F
SEDALIA        CLOUDY    37  33  85 SE5       30.22F
WHITEMAN AFB   CLOUDY    37  33  86 SE2       30.20F
WARRENSBURG    CLOUDY    34  32  93 CALM      30.22F FOG
OSAGE BEACH    CLOUDY    37  32  81 E3        30.22F

$$
MOZ051-052-059>065-192200-
...EAST CENTRAL MISSOURI...

CITY           SKY/WX    TMP DP  RH WIND       PRES   REMARKS
ST LOUIS INTL  CLOUDY    38  27  64 CALM      30.26F
SPIRIT OF STL  CLOUDY    37  28  70 CALM      30.26F
ST CHARLES     CLOUDY    37  29  72 NE7       30.27F

$$
MOZ072>076-082>087-097>100-106>115-192200-
...SOUTH CENTRAL AND SOUTHEAST MISSOURI...

CITY           SKY/WX    TMP DP  RH WIND       PRES   REMARKS
CAPE GIRARDEAU CLOUDY    39  30  70 NE9       30.25F
FARMINGTON     CLOUDY    36  28  75 CALM      30.25S
POPLAR BLUFF   CLOUDY    39  30  70 N8        30.24F
WEST PLAINS    CLOUDY    35  32  88 E5        30.21F

$$


USA.gov is the U.S. government's official web portal to all federal, state and local government web resources and services.